Weather History for KROC - November, 2014

Change the Weather History Date:

Sunday, November 9, 2014

  Actual Average Record
Temperature  
Mean Temperature 42 °F 43 °F  
Max Temperature 46 °F 51 °F 74 °F (1999)
Min Temperature 38 °F 35 °F 17 °F (1991)
Degree Days  
Heating Degree Days 23 22  
Month to date heating degree days 194 187  
Since 1 July heating degree days 691 820  
Cooling Degree Days 0 0  
Month to date cooling degree days 0 0  
Year to date cooling degree days 542 539  
Moisture  
Dew Point 32 °F    
Average Humidity 68    
Maximum Humidity 82    
Minimum Humidity 53    
Precipitation  
Precipitation T in 0.09 in 1.38 in (1895)
Month to date precipitation 1.43 0.86  
Year to date precipitation 29.68 29.56  
Snow  
Snow 0.00 in 0.10 in 6.00 in (1892)
Month to date snowfall T 1.1  
Since 1 July snowfall T 1.2  
Since 1 September snowfall T 1.2  
Snow Depth 0.00 in    
Sea Level Pressure  
Sea Level Pressure 29.89 in    
Wind  
Wind Speed 9 mph (WSW)    
Max Wind Speed 18 mph    
Max Gust Speed 24 mph    
Visibility 10 miles    
Events Rain    
T = Trace of Precipitation, MM = Missing Value Source: NWS Daily Summary

Daily Weather History Graph

Daily Weather History Graph

Search for Another Location

Airport or City:

Trip Planner

Search our weather history database for the weather conditions in past years. The results will help you decide how hot, cold, wet, or windy it might be!

Date:

Astronomy

Nov. 09, 2014 Rise Set
Actual Time 6:55 AM EST 4:52 PM EST
Civil Twilight 6:25 AM EST 5:23 PM EST
Nautical Twilight 5:51 AM EST 5:57 PM EST
Astronomical Twilight 5:18 AM EST 6:30 PM EST
Moon 7:22 PM EST (11/9) 9:27 AM EST (11/9)
Length of Visible Light 10h 57m
Length of Day
9h 57m
Waning Gibbous, 91% of the Moon is Illuminated
Nov 9
Waning Gibbous
Nov 14
Last Quarter
Nov 22
New
Nov 29
First Quarter
Dec 6
Full

Hourly Weather History & Observations

Time (EST) Temp. Windchill Dew Point Humidity Pressure Visibility Wind Dir Wind Speed Gust Speed Precip Events Conditions
12:22 AM 43.0 °F 36.4 °F 37.0 °F 80% 29.80 in 10.0 mi West 12.7 mph - 0.00 in Rain Light Rain
12:32 AM 43.0 °F 38.2 °F 37.0 °F 80% 29.80 in 10.0 mi West 8.1 mph - 0.00 in   Overcast
12:54 AM 43.0 °F 36.8 °F 37.0 °F 80% 29.83 in 10.0 mi West 11.5 mph - 0.00 in   Overcast
1:11 AM 43.0 °F 36.4 °F 37.0 °F 80% 29.81 in 10.0 mi West 12.7 mph - 0.00 in Rain Light Rain
1:27 AM 42.1 °F 36.1 °F 37.0 °F 82% 29.82 in 10.0 mi West 10.4 mph - 0.00 in   Overcast
1:54 AM 42.1 °F 36.1 °F 36.0 °F 79% 29.84 in 10.0 mi WNW 10.4 mph - 0.00 in   Overcast
2:54 AM 41.0 °F 34.7 °F 34.0 °F 76% 29.86 in 10.0 mi WNW 10.4 mph - N/A   Overcast
3:54 AM 39.9 °F 33.9 °F 32.0 °F 73% 29.87 in 10.0 mi West 9.2 mph - N/A   Overcast
4:54 AM 39.9 °F 33.9 °F 27.0 °F 60% 29.89 in 10.0 mi West 9.2 mph - N/A   Mostly Cloudy
5:54 AM 37.9 °F 33.5 °F 28.9 °F 70% 29.91 in 10.0 mi WSW 5.8 mph - N/A   Mostly Cloudy
6:54 AM 39.0 °F 35.7 °F 28.9 °F 67% 29.93 in 10.0 mi WSW 4.6 mph - N/A   Overcast
7:54 AM 39.0 °F 34.8 °F 30.0 °F 70% 29.94 in 10.0 mi WSW 5.8 mph - N/A   Overcast
8:04 AM 39.0 °F 35.7 °F 30.0 °F 70% 29.93 in 10.0 mi WSW 4.6 mph - N/A   Overcast
8:33 AM 39.0 °F 34.8 °F 28.9 °F 67% 29.93 in 10.0 mi WSW 5.8 mph - N/A   Overcast
8:54 AM 39.0 °F 34.8 °F 30.0 °F 70% 29.96 in 10.0 mi West 5.8 mph - N/A   Overcast
9:54 AM 41.0 °F 35.2 °F 30.9 °F 67% 29.96 in 10.0 mi WSW 9.2 mph - N/A   Mostly Cloudy
10:54 AM 43.0 °F 37.7 °F 28.0 °F 56% 29.96 in 10.0 mi West 9.2 mph - N/A   Overcast
11:54 AM 44.1 °F 37.4 °F 28.9 °F 55% 29.94 in 10.0 mi West 13.8 mph 24.2 mph N/A   Mostly Cloudy
12:54 PM 45.0 °F 39.3 °F 30.0 °F 56% 29.92 in 10.0 mi West 11.5 mph - N/A   Mostly Cloudy
1:54 PM 45.0 °F 40.6 °F 30.0 °F 56% 29.91 in 10.0 mi West 8.1 mph - N/A   Mostly Cloudy
2:54 PM 45.0 °F 37.9 °F 34.0 °F 65% 29.91 in 9.0 mi WSW 16.1 mph 19.6 mph 0.00 in Rain Light Rain
3:54 PM 44.1 °F 39.5 °F 34.0 °F 68% 29.89 in 10.0 mi SSW 8.1 mph - 0.00 in   Mostly Cloudy
4:54 PM 44.1 °F 39.5 °F 32.0 °F 63% 29.89 in 10.0 mi SSW 8.1 mph - N/A   Mostly Cloudy
5:54 PM 43.0 °F 38.8 °F 32.0 °F 65% 29.89 in 10.0 mi South 6.9 mph - N/A   Scattered Clouds
6:54 PM 42.1 °F 38.4 °F 30.9 °F 65% 29.90 in 10.0 mi South 5.8 mph - N/A   Mostly Cloudy
7:54 PM 42.1 °F 39.2 °F 30.9 °F 65% 29.89 in 10.0 mi South 4.6 mph - N/A   Overcast
8:54 PM 43.0 °F 38.2 °F 30.0 °F 60% 29.89 in 10.0 mi SSW 8.1 mph - N/A   Mostly Cloudy
9:54 PM 44.1 °F 38.1 °F 30.9 °F 60% 29.90 in 10.0 mi SSW 11.5 mph - N/A   Overcast
10:54 PM 44.1 °F 38.1 °F 30.9 °F 60% 29.91 in 10.0 mi SSW 11.5 mph - N/A   Mostly Cloudy
11:54 PM 43.0 °F 37.2 °F 30.9 °F 62% 29.92 in 10.0 mi SSW 10.4 mph - N/A   Scattered Clouds